| time (UTC) | temp C | wind direction | speed KPH | gust KPH | rain 1hr cm | rain 24hr cm | rain mn cm | humidity % | barometer mb |
| 20260507145526 | 14 | 0 | 17.7 | 29.0 | 0.00 | 0.00 | 0.00 | 52 | 1010.3 |
| 20260507145022 | 14 | 0 | 16.1 | 29.0 | 0.00 | 0.00 | 0.00 | 53 | 1010.5 |
| 20260507144506 | 14 | 0 | 14.5 | 24.1 | 0.00 | 0.00 | 0.00 | 52 | 1010.1 |
| 20260507143956 | 14 | 0 | 12.9 | 27.4 | 0.00 | 0.00 | 0.00 | 54 | 1010.2 |
| 20260507143446 | 13 | 0 | 11.3 | 29.0 | 0.00 | 0.00 | 0.00 | 55 | 1010.3 |
| 20260507142936 | 13 | 0 | 12.9 | 29.0 | 0.00 | 0.00 | 0.00 | 55 | 1010.2 |
| 20260507142424 | 13 | 0 | 14.5 | 27.4 | 0.00 | 0.00 | 0.00 | 55 | 1010.3 |
| 20260507141915 | 13 | 0 | 14.5 | 27.4 | 0.00 | 0.00 | 0.00 | 56 | 1010.2 |
| 20260507141406 | 13 | 0 | 14.5 | 27.4 | 0.00 | 0.00 | 0.00 | 56 | 1010.2 |
| 20260507140344 | 13 | 0 | 17.7 | 29.0 | 0.00 | 0.00 | 0.00 | 56 | 1009.9 |
| 20260507135835 | 13 | 0 | 14.5 | 29.0 | 0.00 | 0.00 | 0.00 | 56 | 1009.8 |
| 20260507135324 | 13 | 0 | 17.7 | 29.0 | 0.00 | 0.00 | 0.00 | 56 | 1009.6 |
| 20260507134815 | 13 | 0 | 14.5 | 29.0 | 0.00 | 0.00 | 0.00 | 55 | 1009.5 |
| 20260507134305 | 13 | 0 | 12.9 | 24.1 | 0.00 | 0.00 | 0.00 | 57 | 1009.8 |
| 20260507133245 | 13 | 0 | 11.3 | 25.7 | 0.00 | 0.00 | 0.00 | 59 | 1009.4 |
| 20260507132224 | 13 | 0 | 9.7 | 24.1 | 0.00 | 0.00 | 0.00 | 60 | 1009.1 |
| 20260507131713 | 13 | 0 | 11.3 | 24.1 | 0.00 | 0.00 | 0.00 | 59 | 1008.9 |
| 20260507130653 | 13 | 0 | 14.5 | 24.1 | 0.00 | 0.00 | 0.00 | 61 | 1009.2 |
| 20260507130144 | 13 | 0 | 9.7 | 19.3 | 0.00 | 0.00 | 0.00 | 62 | 1009.2 |
| 20260507125633 | 13 | 0 | 8.0 | 17.7 | 0.00 | 0.00 | 0.00 | 64 | 1009.4 |
| 20260507125123 | 13 | 0 | 9.7 | 16.1 | 0.00 | 0.00 | 0.00 | 64 | 1009.7 |
| 20260507124613 | 13 | 0 | 9.7 | 16.1 | 0.00 | 0.00 | 0.00 | 64 | 1009.9 |
| 20260507123553 | 13 | 0 | 4.8 | 12.9 | 0.00 | 0.00 | 0.00 | 64 | 1009.8 |
| 20260507123042 | 13 | 0 | 8.0 | 12.9 | 0.00 | 0.00 | 0.00 | 64 | 1009.8 |
| 20260507122533 | 13 | 0 | 3.2 | 8.0 | 0.00 | 0.00 | 0.00 | 67 | 1009.9 |
| 20260507122026 | 13 | 0 | 3.2 | 6.4 | 0.00 | 0.00 | 0.00 | 66 | 1009.8 |
| 20260507121513 | 13 | 0 | 3.2 | 6.4 | 0.00 | 0.00 | 0.00 | 66 | 1009.4 |
| 20260507121002 | 13 | 0 | 3.2 | 8.0 | 0.00 | 0.00 | 0.00 | 66 | 1009.4 |
| 20260507120451 | 13 | 0 | 3.2 | 8.0 | 0.00 | 0.00 | 0.00 | 66 | 1009.5 |
| 20260507115941 | 13 | 0 | 4.8 | 12.9 | 0.00 | 0.00 | 0.00 | 65 | 1008.9 |
| 20260507115433 | 13 | 0 | 6.4 | 12.9 | 0.00 | 0.00 | 0.00 | 65 | 1008.8 |
| 20260507114922 | 13 | 0 | 6.4 | 16.1 | 0.00 | 0.00 | 0.00 | 66 | 1008.6 |
| 20260507114412 | 13 | 0 | 6.4 | 16.1 | 0.00 | 0.00 | 0.00 | 67 | 1007.9 |
| 20260507113901 | 13 | 0 | 6.4 | 16.1 | 0.00 | 0.00 | 0.00 | 66 | 1007.8 |
| 20260507113352 | 13 | 0 | 6.4 | 17.7 | 0.00 | 0.00 | 0.00 | 66 | 1008.4 |
| 20260507112840 | 13 | 0 | 9.7 | 17.7 | 0.00 | 0.00 | 0.00 | 66 | 1007.9 |
| 20260507112332 | 13 | 0 | 11.3 | 16.1 | 0.00 | 0.00 | 0.00 | 65 | 1007.9 |
| 20260507111821 | 13 | 0 | 6.4 | 12.9 | 0.00 | 0.00 | 0.00 | 65 | 1008.3 |
| 20260507111311 | 13 | 0 | 9.7 | 14.5 | 0.00 | 0.00 | 0.00 | 66 | 1007.8 |
| 20260507110800 | 13 | 0 | 9.7 | 16.1 | 0.00 | 0.00 | 0.00 | 66 | 1008.3 |
| 20260507110252 | 13 | 0 | 6.4 | 17.7 | 0.00 | 0.00 | 0.00 | 66 | 1008.1 |
| 20260507105740 | 13 | 0 | 11.3 | 19.3 | 0.00 | 0.00 | 0.00 | 67 | 1008.0 |
| 20260507105230 | 13 | 0 | 9.7 | 19.3 | 0.00 | 0.00 | 0.00 | 67 | 1007.8 |
| 20260507104210 | 13 | 0 | 12.9 | 19.3 | 0.00 | 0.00 | 0.00 | 67 | 1007.3 |
| 20260507103700 | 13 | 0 | 12.9 | 22.5 | 0.00 | 0.00 | 0.00 | 67 | 1007.4 |
| 20260507103149 | 13 | 0 | 9.7 | 22.5 | 0.00 | 0.00 | 0.00 | 67 | 1007.2 |
| 20260507102639 | 13 | 0 | 11.3 | 24.1 | 0.00 | 0.00 | 0.00 | 69 | 1007.9 |
| 20260507102130 | 14 | 0 | 12.9 | 24.1 | 0.00 | 0.00 | 0.00 | 68 | 1007.7 |
| 20260507101109 | 14 | 0 | 9.7 | 14.5 | 0.00 | 0.00 | 0.00 | 70 | 1007.7 |
| 20260507100058 | 13 | 0 | 6.4 | 14.5 | 0.00 | 0.00 | 0.00 | 71 | 1007.5 |
| 20260507095540 | 13 | 0 | 6.4 | 12.9 | 0.00 | 0.00 | 0.00 | 72 | 1007.7 |
| 20260507095029 | 14 | 0 | 6.4 | 12.9 | 0.00 | 0.00 | 0.00 | 72 | 1007.5 |
| 20260507094515 | 14 | 0 | 6.4 | 12.9 | 0.00 | 0.00 | 0.00 | 72 | 1007.6 |
| 20260507094024 | 13 | 0 | 6.4 | 12.9 | 0.00 | 0.00 | 0.00 | 72 | 1007.3 |
| 20260507093459 | 14 | 0 | 6.4 | 14.5 | 0.00 | 0.00 | 0.00 | 73 | 1006.8 |
| 20260507092949 | 14 | 0 | 6.4 | 14.5 | 0.00 | 0.00 | 0.00 | 73 | 1006.7 |
| 20260507092439 | 14 | 0 | 6.4 | 12.9 | 0.00 | 0.00 | 0.00 | 74 | 1006.9 |
| 20260507091928 | 14 | 0 | 6.4 | 17.7 | 0.00 | 0.00 | 0.00 | 73 | 1007.1 |
| 20260507091418 | 14 | 0 | 8.0 | 17.7 | 0.00 | 0.00 | 0.00 | 73 | 1006.9 |
| 20260507090908 | 14 | 0 | 6.4 | 12.9 | 0.00 | 0.00 | 0.00 | 72 | 1006.9 |
| 20260507090358 | 15 | 0 | 6.4 | 14.5 | 0.00 | 0.00 | 0.00 | 71 | 1006.9 |
| 20260507085849 | 15 | 0 | 6.4 | 17.7 | 0.00 | 0.00 | 0.00 | 71 | 1006.9 |
| 20260507085338 | 15 | 0 | 9.7 | 17.7 | 0.00 | 0.00 | 0.00 | 71 | 1006.7 |
| 20260507084828 | 15 | 0 | 11.3 | 17.7 | 0.00 | 0.00 | 0.00 | 72 | 1006.6 |
| 20260507084318 | 15 | 0 | 9.7 | 17.7 | 0.00 | 0.00 | 0.00 | 72 | 1006.7 |
| 20260507083807 | 15 | 0 | 11.3 | 17.7 | 0.00 | 0.00 | 0.00 | 74 | 1006.5 |
| 20260507083258 | 15 | 0 | 12.9 | 19.3 | 0.00 | 0.00 | 0.00 | 74 | 1006.5 |
| 20260507082747 | 15 | 0 | 8.0 | 19.3 | 0.00 | 0.00 | 0.00 | 76 | 1006.2 |
| 20260507081727 | 15 | 0 | 11.3 | 19.3 | 0.00 | 0.00 | 0.00 | 78 | 1006.6 |
| 20260507081217 | 15 | 0 | 8.0 | 24.1 | 0.00 | 0.00 | 0.00 | 77 | 1006.7 |
| 20260507080707 | 15 | 0 | 11.3 | 24.1 | 0.00 | 0.00 | 0.00 | 76 | 1006.8 |
| 20260507080157 | 16 | 0 | 14.5 | 33.8 | 0.00 | 0.00 | 0.00 | 76 | 1006.5 |
| 20260507075647 | 16 | 0 | 12.9 | 33.8 | 0.00 | 0.00 | 0.00 | 76 | 1006.7 |
| 20260507075136 | 16 | 0 | 16.1 | 24.1 | 0.00 | 0.00 | 0.00 | 78 | 1006.2 |
| 20260507074627 | 16 | 0 | 14.5 | 25.7 | 0.00 | 0.00 | 0.00 | 81 | 1006.3 |
| 20260507074116 | 16 | 0 | 12.9 | 25.7 | 0.00 | 0.00 | 0.00 | 82 | 1006.0 |
| 20260507073606 | 16 | 0 | 14.5 | 27.4 | 0.00 | 0.00 | 0.00 | 83 | 1006.1 |
| 20260507073056 | 17 | 0 | 16.1 | 37.0 | 0.00 | 0.00 | 0.00 | 84 | 1006.2 |
| 20260507072547 | 17 | 0 | 19.3 | 37.0 | 0.00 | 0.00 | 0.00 | 85 | 1006.0 |
| 20260507072035 | 17 | 0 | 12.9 | 30.6 | 0.00 | 0.00 | 0.00 | 88 | 1006.1 |
| 20260507071526 | 17 | 0 | 12.9 | 30.6 | 0.00 | 0.00 | 0.00 | 91 | 1006.2 |
| 20260507070505 | 17 | 0 | 12.9 | 29.0 | 0.00 | 0.00 | 0.00 | 92 | 1006.2 |
| 20260507065955 | 17 | 0 | 11.3 | 25.7 | 0.00 | 0.00 | 0.00 | 92 | 1006.2 |
| 20260507065446 | 17 | 0 | 9.7 | 25.7 | 0.00 | 0.00 | 0.00 | 93 | 1006.0 |
| 20260507064935 | 17 | 0 | 11.3 | 20.9 | 0.00 | 0.00 | 0.00 | 93 | 1005.9 |
| 20260507064425 | 17 | 0 | 11.3 | 24.1 | 0.00 | 0.00 | 0.00 | 93 | 1005.8 |
| 20260507063914 | 17 | 0 | 8.0 | 24.1 | 0.00 | 0.00 | 0.00 | 93 | 1005.6 |
| 20260507063404 | 17 | 0 | 6.4 | 19.3 | 0.00 | 0.00 | 0.00 | 93 | 1005.6 |
| 20260507062854 | 17 | 0 | 6.4 | 19.3 | 0.00 | 0.00 | 0.00 | 93 | 1005.5 |
| 20260507062345 | 17 | 0 | 9.7 | 19.3 | 0.00 | 0.00 | 0.00 | 93 | 1005.6 |
| 20260507061324 | 17 | 0 | 11.3 | 17.7 | 0.00 | 0.00 | 0.00 | 94 | 1005.5 |
| 20260507060813 | 17 | 0 | 12.9 | 0.0 | 0.00 | 0.00 | 0.00 | 94 | 1005.4 |
| 20260507055851 | 17 | 0 | 9.7 | 17.7 | 0.00 | 0.00 | 0.00 | 94 | 1005.6 |
| 20260507055341 | 17 | 0 | 8.0 | 16.1 | 0.00 | 0.00 | 0.00 | 94 | 1005.0 |
| 20260507054832 | 17 | 0 | 6.4 | 16.1 | 0.00 | 0.00 | 0.00 | 94 | 1004.9 |
| 20260507054321 | 17 | 0 | 8.0 | 17.7 | 0.00 | 0.00 | 0.00 | 94 | 1005.0 |
| 20260507053810 | 17 | 0 | 8.0 | 17.7 | 0.00 | 0.00 | 0.00 | 93 | 1005.1 |
| 20260507053302 | 17 | 0 | 8.0 | 14.5 | 0.00 | 0.00 | 0.00 | 93 | 1005.0 |
| 20260507052240 | 17 | 0 | 8.0 | 16.1 | 0.00 | 0.00 | 0.00 | 93 | 1005.1 |
| 20260507051730 | 17 | 0 | 8.0 | 14.5 | 0.00 | 0.00 | 0.00 | 93 | 1005.1 |
| 20260507051220 | 17 | 0 | 9.7 | 14.5 | 0.00 | 0.00 | 0.00 | 93 | 1005.4 |
| 20260507050710 | 17 | 0 | 6.4 | 12.9 | 0.00 | 0.00 | 0.00 | 92 | 1005.1 |
| 20260507045139 | 17 | 0 | 8.0 | 17.7 | 0.00 | 0.00 | 0.00 | 92 | 1004.9 |
| 20260507044630 | 17 | 0 | 8.0 | 16.1 | 0.00 | 0.00 | 0.00 | 92 | 1004.7 |
| 20260507044120 | 17 | 0 | 6.4 | 12.9 | 0.00 | 0.00 | 0.00 | 94 | 1004.6 |
| 20260507043108 | 17 | 0 | 4.8 | 8.0 | 0.00 | 0.00 | 0.00 | 94 | 1004.3 |
| 20260507034624 | 17 | 0 | 6.4 | 9.7 | 0.00 | 0.00 | 0.00 | 93 | 1004.5 |
| 20260507034120 | 17 | 0 | 6.4 | 9.7 | 0.00 | 0.00 | 0.00 | 93 | 1004.1 |
| 20260507033556 | 17 | 0.0 | 0.0 | 0.00 | 0.00 | 0.00 | 93 | ||
| 20260507031158 | 18 | 0 | 3.2 | 3.2 | 0.00 | 0.00 | 0.00 | 92 | 1004.4 |
| 20260507030649 | 18 | 0 | 3.2 | 3.2 | 0.00 | 0.00 | 0.00 | 92 | 1004.4 |
| 20260507030139 | 18 | 0 | 0.0 | 4.8 | 0.00 | 0.00 | 0.00 | 92 | 1004.6 |
| 20260507025628 | 18 | 0 | 0.0 | 6.4 | 0.00 | 0.00 | 0.00 | 91 | 1004.8 |
| 20260507025117 | 18 | 0 | 0.0 | 6.4 | 0.00 | 0.00 | 0.00 | 91 | 1004.9 |
| 20260507024609 | 18 | 0 | 1.6 | 6.4 | 0.00 | 0.00 | 0.00 | 90 | 1004.4 |
| 20260507024058 | 18 | 0 | 0.0 | 12.9 | 0.00 | 0.00 | 0.00 | 90 | 1004.0 |
| 20260507023549 | 19 | 0 | 0.0 | 12.9 | 0.00 | 0.00 | 0.00 | 88 | 1004.0 |
| 20260507023037 | 19 | 0 | 8.0 | 12.9 | 0.00 | 0.00 | 0.00 | 86 | 1003.7 |
| 20260507022527 | 19 | 0 | 4.8 | 8.0 | 0.00 | 0.00 | 0.00 | 86 | 1003.7 |
| 20260507022024 | 19 | 0 | 3.2 | 8.0 | 0.00 | 0.00 | 0.00 | 85 | 1004.0 |
| 20260507021507 | 19 | 0 | 1.6 | 9.7 | 0.00 | 0.00 | 0.00 | 85 | 1003.8 |
| 20260507020958 | 19 | 0 | 3.2 | 12.9 | 0.00 | 0.00 | 0.00 | 84 | 1004.1 |
| 20260507015938 | 20 | 0 | 4.8 | 16.1 | 0.00 | 0.00 | 0.00 | 82 | 1003.4 |
| 20260507015426 | 20 | 0 | 6.4 | 19.3 | 0.00 | 0.00 | 0.00 | 82 | 1003.4 |
| 20260507014919 | 20 | 0 | 4.8 | 19.3 | 0.00 | 0.00 | 0.00 | 84 | 1003.6 |
| 20260507014406 | 20 | 0 | 8.0 | 14.5 | 0.00 | 0.00 | 0.00 | 92 | 1003.4 |
| 20260507013347 | 20 | 0 | 0.0 | 6.4 | 0.00 | 0.00 | 0.00 | 91 | 1002.7 |
| 20260507012836 | 20 | 0 | 3.2 | 6.4 | 0.00 | 0.00 | 0.00 | 92 | 1002.6 |
| 20260507012326 | 20 | 0 | 3.2 | 4.8 | 0.00 | 0.00 | 0.00 | 91 | 1002.9 |
| 20260507011816 | 20 | 0 | 3.2 | 6.4 | 0.00 | 0.00 | 0.00 | 91 | 1002.8 |
| 20260507011306 | 20 | 0 | 3.2 | 6.4 | 0.00 | 0.00 | 0.00 | 90 | 1002.4 |
| 20260507010756 | 21 | 0 | 3.2 | 6.4 | 0.00 | 0.00 | 0.00 | 90 | 1002.8 |
| 20260507010246 | 21 | 0 | 0.0 | 3.2 | 0.00 | 0.00 | 0.00 | 90 | 1002.8 |
| 20260507005225 | 21 | 0 | 0.0 | 3.2 | 0.00 | 0.00 | 0.00 | 89 | 1002.6 |
| 20260507004716 | 21 | 0 | 0.0 | 3.2 | 0.00 | 0.00 | 0.00 | 89 | 1002.5 |
| 20260507003655 | 20 | 0 | 0.0 | 4.8 | 0.00 | 0.00 | 0.00 | 89 | 1002.3 |
| 20260507003149 | 21 | 0 | 1.6 | 4.8 | 0.00 | 0.00 | 0.00 | 88 | 1002.3 |
| 20260507002125 | 20 | 0 | 0.0 | 3.2 | 0.00 | 0.00 | 0.00 | 88 | 1002.7 |
| 20260507001615 | 21 | 0 | 0.0 | 3.2 | 0.00 | 0.00 | 0.00 | 87 | 1003.2 |
| 20260507000554 | 21 | 0 | 0.0 | 4.8 | 0.00 | 0.00 | 0.00 | 86 | 1002.9 |
| 20260507000044 | 21 | 0 | 3.2 | 4.8 | 0.00 | 0.00 | 0.00 | 85 | 1003.2 |
| 20260506235534 | 20 | 0 | 0.0 | 1.6 | 0.00 | 0.00 | 0.00 | 86 | 1003.2 |
| 20260506235024 | 20 | 0 | 0.0 | 3.2 | 0.00 | 0.00 | 0.00 | 86 | 1003.1 |
| 20260506234514 | 20 | 0 | 0.0 | 3.2 | 0.00 | 0.00 | 0.00 | 87 | 1002.9 |
| 20260506234004 | 20 | 0 | 0.0 | 4.8 | 0.00 | 0.00 | 0.00 | 87 | 1003.1 |
| 20260506233454 | 20 | 0 | 0.0 | 4.8 | 0.00 | 0.00 | 0.00 | 86 | 1002.6 |
| 20260506232945 | 21 | 0 | 0.0 | 4.8 | 0.00 | 0.00 | 0.00 | 85 | 1002.4 |
| 20260506232434 | 21 | 0 | 0.0 | 3.2 | 0.00 | 0.00 | 0.00 | 85 | 1002.2 |
| 20260506231924 | 21 | 0 | 0.0 | 3.2 | 0.00 | 0.00 | 0.00 | 85 | 1002.2 |
| 20260506231413 | 21 | 0 | 0.0 | 0.0 | 0.00 | 0.00 | 0.00 | 86 | 1001.9 |
| 20260506230904 | 21 | 0 | 0.0 | 0.0 | 0.00 | 0.00 | 0.00 | 86 | 1001.8 |
| 20260506230353 | 21 | 0 | 0.0 | 0.0 | 0.00 | 0.00 | 0.00 | 86 | 1002.3 |
| 20260506225842 | 21 | 0 | 0.0 | 0.0 | 0.00 | 0.00 | 0.00 | 86 | 1002.3 |
| 20260506225333 | 21 | 0 | 0.0 | 0.0 | 0.00 | 0.00 | 0.00 | 85 | 1002.1 |
| 20260506224823 | 21 | 0 | 0.0 | 0.0 | 0.00 | 0.00 | 0.00 | 86 | 1001.8 |
| 20260506224313 | 21 | 0 | 0.0 | 0.0 | 0.00 | 0.00 | 0.00 | 86 | 1001.8 |
| 20260506223802 | 21 | 0 | 0.0 | 0.0 | 0.00 | 0.00 | 0.00 | 86 | 1001.8 |
| 20260506223252 | 21 | 0 | 0.0 | 0.0 | 0.00 | 0.00 | 0.00 | 85 | 1001.5 |
| 20260506222742 | 22 | 0 | 0.0 | 0.0 | 0.00 | 0.00 | 0.00 | 84 | 1001.6 |
| 20260506222231 | 21 | 0 | 0.0 | 0.0 | 0.00 | 0.00 | 0.00 | 84 | 1001.5 |
| 20260506221722 | 21 | 0 | 0.0 | 0.0 | 0.00 | 0.00 | 0.00 | 84 | 1001.3 |
| 20260506220703 | 22 | 0 | 0.0 | 0.0 | 0.00 | 0.00 | 0.00 | 84 | 1001.2 |
| 20260506220152 | 22 | 0 | 0.0 | 0.0 | 0.00 | 0.00 | 0.00 | 82 | 1001.4 |
| 20260506215636 | 22 | 0.0 | 0.0 | 0.00 | 0.00 | 0.00 | 82 | ||
| 20260506210440 | 27 | 0 | 3.2 | 9.7 | 0.00 | 0.00 | 0.00 | 69 | 1000.2 |
| 20260506205930 | 27 | 0 | 4.8 | 9.7 | 0.00 | 0.00 | 0.00 | 68 | 1000.2 |
| 20260506205421 | 27 | 0 | 6.4 | 12.9 | 0.00 | 0.00 | 0.00 | 68 | 1000.2 |
| 20260506204910 | 27 | 0 | 6.4 | 12.9 | 0.00 | 0.00 | 0.00 | 66 | 1000.5 |
| 20260506203340 | 28 | 0 | 8.0 | 17.7 | 0.00 | 0.00 | 0.00 | 65 | 1000.3 |
| 20260506202831 | 28 | 0 | 6.4 | 17.7 | 0.00 | 0.00 | 0.00 | 64 | 1000.4 |
| 20260506202319 | 28 | 0 | 6.4 | 19.3 | 0.00 | 0.00 | 0.00 | 64 | 1000.5 |
| 20260506201810 | 28 | 0 | 6.4 | 19.3 | 0.00 | 0.00 | 0.00 | 64 | 1000.3 |
| 20260506201300 | 28 | 0 | 11.3 | 17.7 | 0.00 | 0.00 | 0.00 | 63 | 1000.1 |
| 20260506200751 | 28 | 0 | 11.3 | 24.1 | 0.00 | 0.00 | 0.00 | 63 | 1000.0 |
| 20260506200240 | 28 | 0 | 9.7 | 24.1 | 0.00 | 0.00 | 0.00 | 63 | 1000.1 |
| 20260506195219 | 29 | 0 | 9.7 | 22.5 | 0.00 | 0.00 | 0.00 | 63 | 1000.2 |
| 20260506194708 | 29 | 0 | 6.4 | 22.5 | 0.00 | 0.00 | 0.00 | 63 | 1000.1 |
| 20260506194159 | 29 | 0 | 6.4 | 19.3 | 0.00 | 0.00 | 0.00 | 64 | 1000.3 |
| 20260506193649 | 29 | 0 | 11.3 | 20.9 | 0.00 | 0.00 | 0.00 | 63 | 1000.3 |
| 20260506193139 | 29 | 0 | 6.4 | 24.1 | 0.00 | 0.00 | 0.00 | 64 | 1000.5 |
| 20260506192629 | 29 | 0 | 8.0 | 24.1 | 0.00 | 0.00 | 0.00 | 63 | 1000.8 |
| 20260506192119 | 29 | 0 | 4.8 | 22.5 | 0.00 | 0.00 | 0.00 | 66 | 1000.9 |
| 20260506191059 | 28 | 0 | 6.4 | 22.5 | 0.00 | 0.00 | 0.00 | 68 | 1001.0 |
| 20260506190549 | 28 | 0 | 12.9 | 24.1 | 0.00 | 0.00 | 0.00 | 66 | 1001.2 |
| 20260506190037 | 28 | 0 | 6.4 | 24.1 | 0.00 | 0.00 | 0.00 | 65 | 1001.2 |
| 20260506185528 | 29 | 0 | 9.7 | 20.9 | 0.00 | 0.00 | 0.00 | 64 | 1001.5 |
| 20260506185024 | 29 | 0 | 8.0 | 20.9 | 0.00 | 0.00 | 0.00 | 64 | 1001.5 |
| 20260506184514 | 29 | 0 | 8.0 | 17.7 | 0.00 | 0.00 | 0.00 | 65 | 1001.8 |
| 20260506183958 | 28 | 0 | 11.3 | 17.7 | 0.00 | 0.00 | 0.00 | 66 | 1001.9 |
| 20260506183448 | 28 | 0 | 9.7 | 20.9 | 0.00 | 0.00 | 0.00 | 65 | 1002.2 |
| 20260506182937 | 28 | 0 | 8.0 | 20.9 | 0.00 | 0.00 | 0.00 | 69 | 1002.4 |
| 20260506182427 | 28 | 0 | 8.0 | 20.9 | 0.00 | 0.00 | 0.00 | 69 | 1002.3 |
| 20260506181917 | 28 | 0 | 14.5 | 20.9 | 0.00 | 0.00 | 0.00 | 68 | 1002.3 |
| 20260506181407 | 28 | 0 | 11.3 | 20.9 | 0.00 | 0.00 | 0.00 | 68 | 1002.5 |
| 20260506180347 | 27 | 0 | 8.0 | 22.5 | 0.00 | 0.00 | 0.00 | 71 | 1002.3 |
| 20260506175837 | 28 | 0 | 8.0 | 22.5 | 0.00 | 0.00 | 0.00 | 72 | 1002.3 |
| 20260506175327 | 28 | 0 | 6.4 | 22.5 | 0.00 | 0.00 | 0.00 | 72 | 1002.4 |
| 20260506174817 | 27 | 0 | 12.9 | 22.5 | 0.00 | 0.00 | 0.00 | 70 | 1002.4 |
| 20260506174307 | 27 | 0 | 9.7 | 14.5 | 0.00 | 0.00 | 0.00 | 72 | 1002.4 |
| 20260506173246 | 27 | 0 | 9.7 | 17.7 | 0.00 | 0.00 | 0.00 | 74 | 1002.5 |
| 20260506172226 | 26 | 0 | 12.9 | 19.3 | 0.00 | 0.00 | 0.00 | 76 | 1002.7 |
| 20260506171716 | 26 | 0 | 12.9 | 19.3 | 0.00 | 0.00 | 0.00 | 76 | 1002.5 |
| 20260506171206 | 26 | 0 | 8.0 | 12.9 | 0.00 | 0.00 | 0.00 | 79 | 1002.8 |
| 20260506170655 | 26 | 0 | 1.6 | 11.3 | 0.00 | 0.00 | 0.00 | 81 | 1003.1 |
| 20260506170145 | 26 | 0 | 4.8 | 11.3 | 0.00 | 0.00 | 0.00 | 81 | 1003.0 |
| 20260506165635 | 25 | 0 | 6.4 | 12.9 | 0.00 | 0.00 | 0.00 | 83 | 1003.1 |
| 20260506165125 | 25 | 0 | 6.4 | 16.1 | 0.00 | 0.00 | 0.00 | 83 | 1003.1 |
| 20260506164616 | 24 | 0 | 8.0 | 16.1 | 0.00 | 0.00 | 0.00 | 86 | 1003.3 |
| 20260506164105 | 24 | 0 | 8.0 | 22.5 | 0.00 | 0.00 | 0.00 | 88 | 1003.5 |
| 20260506163555 | 23 | 0 | 8.0 | 22.5 | 0.00 | 0.00 | 0.00 | 89 | 1003.5 |
| 20260506163044 | 22 | 0 | 11.3 | 19.3 | 0.00 | 0.00 | 0.00 | 93 | 1003.4 |
| 20260506162536 | 22 | 0 | 8.0 | 17.7 | 0.00 | 0.00 | 0.00 | 94 | 1003.9 |
| 20260506162025 | 22 | 0 | 4.8 | 17.7 | 0.00 | 0.00 | 0.00 | 95 | 1003.9 |
| 20260506161514 | 22 | 0 | 6.4 | 16.1 | 0.00 | 0.00 | 0.00 | 95 | 1003.9 |
| 20260506160454 | 21 | 0 | 8.0 | 17.7 | 0.00 | 0.00 | 0.00 | 95 | 1004.3 |
| 20260506155943 | 21 | 0 | 6.4 | 17.7 | 0.00 | 0.00 | 0.00 | 95 | 1004.3 |
| 20260506155434 | 21 | 0 | 6.4 | 14.5 | 0.00 | 0.00 | 0.00 | 95 | 1004.6 |
| 20260506154923 | 21 | 0 | 8.0 | 14.5 | 0.00 | 0.00 | 0.00 | 95 | 1004.8 |
| 20260506153903 | 21 | 0 | 1.6 | 9.7 | 0.00 | 0.00 | 0.00 | 95 | 1005.4 |
| 20260506153353 | 21 | 0 | 1.6 | 12.9 | 0.00 | 0.00 | 0.00 | 95 | 1005.4 |
| 20260506152843 | 21 | 0 | 3.2 | 12.9 | 0.00 | 0.00 | 0.00 | 95 | 1005.3 |
| 20260506152333 | 21 | 0 | 3.2 | 12.9 | 0.00 | 0.00 | 0.00 | 95 | 1005.3 |
| 20260506151822 | 21 | 0 | 3.2 | 12.9 | 0.00 | 0.00 | 0.00 | 95 | 1005.6 |
| 20260506150803 | 20 | 0 | 3.2 | 17.7 | 0.00 | 0.00 | 0.00 | 95 | 1005.9 |